Frankfurt am Main Airport

Airport
ICAO code: 
EDDF
IATA Code: 
FRA
Summary
ICAO Region: 
EUR
Territory: 
Location: 
Frankfurt,
Serving: 
Frankfurt
Elevation: 
364 ft
Coordinates: 
Aerial View: 
50° 2' 27.889" N, 8° 34' 23.849" E
Airport LOS: 
Parallel Runway Operation
Metar
Observation
EDDF 251050Z 15003KT 110V200 9999 SCT004 OVC012 00/M01 Q1034 TEMPO BKN004
Station
Frankfurt / M-Flughafen
Date/Time
2022-01-25 10:50:00
Wind direction
150°
Wind speed
03 kts
Lowest cloud amount
scattered clouds
Temperature
0°C
Dew point
-1°C
Humidity
92%
QNH
1034 hPa
Weather condition
n/a

Description

International airport serving Frankfurt am Main, Germany.

Climatology

Temperate Marine climate/Oceanic climate (Köppen climate classification Cfb) - Moderately cool summer and comparatively warm winter.

Runways

Designator Length Width Surface Rops
07L/25R 2800 45 CON Yes/Yes
07C/25C 4000 60 CON Yes/Yes
07R/25L 4000 45 CON Yes/Yes
18/36 4000 45 CON Yes/Yes

SKYbrary Partners:

Safety knowledge contributed by: